Location: Praha
(50.0830°N, 14.4670°E)
Time: 15:25:45
(UTC+02:00)

ISS - Pass Details

Date: 01 June 2019
Orbit: 408 x 418 km, 51.6° (Epoch: 19 June)

Event Time Altitude Azimuth Distance (km) Brightness Sun altitude
Rises 22:27:15 0° 286° (WNW) 2,356 0.9 -10.3°
Reaches altitude 10° 22:29:34 10° 272° (W) 1,493 -0.4 -10.5°
Maximum altitude 22:32:22 25° 216° (SW) 890 -2.3 -10.8°
Enters shadow 22:34:15 15° 170° (S) 1,204 -2.0 -10.9°
